EW5526 Weather Reports


Display with metric or nautical units.
time (UTC)temp
F
wind
direction
speed
MPH
gust
MPH
rain 1hr
in
rain 24hr
in
rain mn
in
humidity
%
barometer
mb
20260506123031 69 116 3.0 11.0 0.00 0.00 0.00 55 1014.5
20260506120030 68 98 3.0 8.0 0.00 0.00 0.00 59 1014.6
20260506110028 70 85 5.0 5.0 0.00 0.00 0.00 47 1014.6
20260506103028 70 114 6.0 10.0 0.00 0.00 0.00 47 1014.9
20260506100028 70 115 2.0 9.0 0.00 0.00 0.00 48 1015.0
20260506093027 69 74 2.0 4.0 0.00 0.00 0.00 46 1014.9
20260506090026 69 147 2.0 12.0 0.00 0.00 0.00 47 1014.5
20260506083026 66 140 5.0 14.0 0.00 0.00 0.00 50 1014.7
20260506043022 60 90 2.0 5.0 0.00 0.00 0.00 61 1015.0
20260506033021 59 113 6.0 7.0 0.00 0.00 0.00 69 1014.9
20260506030021 59 103 2.0 10.0 0.00 0.00 0.00 70 1015.0
20260506023021 60 115 2.0 9.0 0.00 0.00 0.00 68 1015.2
20260506020020 61 143 3.0 5.0 0.00 0.00 0.00 64 1015.3
20260506013019 63 137 4.0 7.0 0.00 0.00 0.00 52 1015.4
20260506010019 62 65 2.0 6.0 0.00 0.00 0.00 53 1014.5
20260506003018 62 21 2.0 5.0 0.00 0.00 0.00 54 1014.8
20260506000018 62 95 1.0 9.0 0.00 0.00 0.00 54 1015.3
20260505233047 62 68 1.0 4.0 0.00 0.00 0.00 56 1015.5
20260505223016 62 33 3.0 5.0 0.00 0.00 0.00 56 1015.6
20260505220046 62 100 7.0 9.0 0.00 0.00 0.00 59 1015.9
20260505213045 61 113 8.0 8.0 0.00 0.00 0.00 65 1016.0
20260505210045 60 98 4.0 9.0 0.00 0.00 0.00 71 1016.1
20260505203044 60 123 9.0 9.0 0.00 0.00 0.00 72 1016.2
20260505200043 61 109 7.0 10.0 0.00 0.00 0.00 68 1016.1
20260505183042 62 115 2.0 2.0 0.00 0.00 0.00 70 1016.0
20260505180042 62 99 8.0 8.0 0.00 0.00 0.00 67 1016.0
20260505170041 64 103 1.0 4.0 0.00 0.00 0.00 65 1016.1
20260505163040 65 97 3.0 7.0 0.00 0.00 0.00 66 1016.4
20260505153039 67 107 3.0 6.0 0.00 0.00 0.00 62 1016.7